User: anonymous   Login
Location: Unspecified
(0.0000°N, 0.0000°E)
Time: 03:23:52
(UTC+00:00)
Language:

Explorer 11/Cluster Stage 4 - Orbit

View from above orbital plane
View from above orbital plane
View from above satellite
View from above satellite

Ground track
Ground track

The orbit data is extracted from the following two-line orbital elements,

1 00107U 61013A   15025.57872186  .00001665  00000-0  21209-3 0  2286
2 00107 028.7878 133.4037 0558263 101.4180 007.6515 14.06097157687886
Epoch (UTC): 25 January 2015 13:53:21
Eccentricity: 0.0558263
inclination: 28.7878°
perigee height: 468 km
apogee height: 1277 km
right ascension of ascending node: 133.4037°
argument of perigee: 101.4180°
revolutions per day: 14.06097157
mean anomaly at epoch: 7.6515°
orbit number at epoch: 68788

The dashed part of the orbit path shows where the satellite is in the earth's shadow,  

DLR